Location: Bay Creek Structure Number 5 Dam
(37.4851°N, 88.6884°W)
Time: 06:08:30
(UTC+00:00)

STARLINK-40 - Pass Details

Date: 13 October 2019
Orbit: 548 x 551 km, 53.0° (Epoch: 18 November)

Event Time Altitude Azimuth Distance (km) Brightness Sun altitude
Rises 23:37:56 0° 233° (SW) 2,702 8.3 -4.2°
Reaches altitude 10° 23:40:10 10° 236° (SW) 1,813 7.4 -4.7°
Maximum altitude 23:44:16 67° 319° (NW) 595 4.0 -5.5°
Drops below altitude 10° 23:48:24 10° 43° (NE) 1,824 5.8 -6.3°
Enters shadow 23:50:11 - 46° (NE) 2,531 6.5 -6.7°
